Location: Home
(42.5358°N, 72.7383°W)
Time: 12:16:57
(UTC-05:00)

Vanguard 2 Rocket - Visible Passes

Search period start: 06 December 2021 00:00
Search period end: 16 December 2021 00:00
Orbit: 555 x 3324 km, 32.9° (Epoch: 06 December)

Date Brightness Start Highest point End Pass type
(mag) Time Alt. Az. Time Alt. Az. Time Alt. Az.
06 Dec 8.3 17:05:22 10° SW 17:09:46 28° SSE 17:16:17 10° ESE visible
06 Dec 8.3 19:16:12 10° WSW 19:22:30 44° S 19:23:17 43° SSE visible
06 Dec 10.0 21:28:25 10° WSW 21:29:04 13° WSW 21:29:04 13° WSW visible
07 Dec 8.1 18:17:23 10° WSW 18:22:42 39° S 18:26:51 25° ESE visible
07 Dec 9.1 20:29:05 10° WSW 20:32:37 28° SW 20:32:37 28° SW visible
08 Dec 8.1 17:18:45 10° SW 17:23:13 32° SSE 17:29:57 10° ESE visible
08 Dec 8.4 19:30:01 10° WSW 19:36:07 39° S 19:36:13 39° S visible
09 Dec 8.2 18:31:06 10° WSW 18:36:19 38° S 18:39:51 26° SE visible
09 Dec 9.4 20:43:12 10° WSW 20:45:38 20° WSW 20:45:38 20° WSW visible
10 Dec 8.0 17:32:19 10° WSW 17:36:45 34° S 17:43:27 10° ESE visible
10 Dec 8.7 19:43:59 10° WSW 19:49:19 32° SSW 19:49:19 32° SSW visible
11 Dec 8.4 18:44:57 10° WSW 18:49:57 32° S 18:53:03 25° SSE visible
11 Dec 9.8 20:57:46 10° WSW 20:58:51 13° WSW 20:58:51 13° WSW visible
12 Dec 8.1 17:46:04 10° WSW 17:50:22 31° S 17:56:46 10° ESE visible
12 Dec 9.1 19:58:15 10° WSW 20:02:39 23° SSW 20:02:39 23° SSW visible
13 Dec 8.0 16:47:14 10° SW 16:50:57 28° S 16:56:01 10° ESE visible
13 Dec 8.7 18:59:02 10° WSW 19:03:39 25° S 19:06:31 20° SSE visible
14 Dec 8.4 17:59:59 10° WSW 18:04:02 26° S 18:09:47 10° SE visible
14 Dec 9.5 20:13:14 10° SW 20:16:18 15° SSW 20:16:18 15° SSW visible
15 Dec 8.2 17:01:00 10° WSW 17:04:35 25° S 17:09:20 10° SE visible
15 Dec 9.1 19:13:34 10° SW 19:17:22 18° SSW 19:20:23 14° SSE visible
